Simultaneous Nadir Overpasses (SNOs) Predictions

Prediction of SNOs between LANDSAT-8 and NPP Satellite Orbit:

Table of predicted SNOs for the next 14.0 days since TLE Epoch: 8/20/2015
Index Date (LANDSAT-8) Time (LANDSAT-8) Lat,Lon (LANDSAT-8) SZA (LANDSAT-8 ) Date (NPP) Time (NPP) Lat,Lon (NPP) SZA (NPP ) Distance(km) Time Diff (sec)
1 08/21/2015 03:40:01 71.26, 123.09 58.94 08/21/2015 03:38:54 71.33, 120.69 59.08 86.04 67
2 08/21/2015 04:29:44 -70.43, -70.55 121.85 08/21/2015 04:29:21 -70.45, -70.55 121.83 2.26 23
3 08/21/2015 05:19:11 70.34, 96.95 58.07 08/21/2015 05:20:05 70.34, 96.94 58.07 0.70 54
4 08/23/2015 19:56:44 70.55,-122.12 59.15 08/23/2015 19:55:32 70.58,-122.29 59.19 6.65 72
5 08/23/2015 20:46:15 -70.39, 45.27 121.00 08/23/2015 20:46:12 -70.38, 45.34 121.00 2.78 3
6 08/23/2015 21:35:43 70.23,-147.32 58.86 08/23/2015 21:36:55 70.22,-147.10 58.84 8.52 72
7 08/26/2015 12:13:15 70.50, -6.33 60.02 08/26/2015 12:12:23 70.51, -6.41 60.04 3.53 52
8 08/26/2015 13:02:45 -70.39, 161.15 120.08 08/26/2015 13:03:04 -70.37, 161.13 120.10 2.35 19
9 08/26/2015 13:52:27 69.46, -32.51 59.04 08/26/2015 13:53:33 69.46, -30.20 58.98 90.37 66
10 08/29/2015 04:29:46 70.44, 109.46 60.89 08/29/2015 04:29:14 70.45, 109.46 60.91 1.91 32
11 08/29/2015 05:19:16 -70.33, -83.06 119.20 08/29/2015 05:19:56 -70.36, -83.08 119.17 3.41 40
12 08/31/2015 19:56:40 -70.97, 58.51 117.65 08/31/2015 19:55:30 -71.03, 56.99 117.55 55.29 70
13 08/31/2015 20:46:15 70.42,-134.68 61.83 08/31/2015 20:46:04 70.40,-134.67 61.81 2.68 11
14 08/31/2015 21:35:45 -70.32, 32.81 118.26 08/31/2015 21:36:46 -70.30, 32.79 118.28 1.83 61
15 09/03/2015 12:13:18 -70.51, 173.69 117.13 09/03/2015 12:12:12 -70.50, 173.62 117.13 2.84 66
16 09/03/2015 13:02:45 70.40, -18.83 62.78 09/03/2015 13:02:56 70.40, -18.90 62.78 2.57 11
17 09/03/2015 13:52:21 -69.97, 148.19 117.63 09/03/2015 13:53:32 -69.99, 149.05 117.63 32.81 71




NCC Satellite Simultaneous Nadir Overpasses (SNOs) Prediction Service
